Location: Fredericksburg
(30.2750°N, 98.8720°W)
Time: 07:58:30
(UTC-05:00)

ISS - All Passes

Search period start: 30 October 2014 00:00
Search period end: 08 November 2014 23:00
Orbit: 412 x 417 km, 51.6° (Epoch: 30 October)

Date Brightness Start Highest point End Pass type
(mag) Time Alt. Az. Time Alt. Az. Time Alt. Az.
30 Oct - 10:23:57 10° SSW 10:27:11 57° SE 10:30:27 10° NE daylight
30 Oct - 12:02:43 10° WNW 12:04:07 12° NW 12:05:33 10° N daylight
30 Oct - 18:33:34 10° NW 18:36:50 52° NE 18:40:06 10° ESE daylight
31 Oct - 09:35:20 10° S 09:38:09 26° SE 09:40:59 10° ENE daylight
31 Oct - 11:12:16 10° W 11:14:48 20° NW 11:17:21 10° NNE daylight
31 Oct - 17:44:44 10° NNW 17:47:38 27° NE 17:50:31 10° E daylight
31 Oct - 19:21:45 10° W 19:24:10 19° SW 19:26:34 10° S visible
01 Nov - 08:47:31 10° SSE 08:49:08 13° SE 08:50:45 10° E daylight
01 Nov - 10:22:27 10° WSW 10:25:32 36° NW 10:28:38 10° NNE daylight
01 Nov - 16:56:11 10° N 16:58:18 16° NE 17:00:25 10° ENE daylight
01 Nov - 18:31:59 10° WNW 18:35:06 38° SW 18:38:12 10° SSE daylight
02 Nov - 08:33:00 10° SW 08:36:18 78° NW 08:39:37 10° NE daylight
02 Nov - 16:42:36 10° NW 16:45:56 86° SW 16:49:15 10° SE daylight
03 Nov - 07:43:55 10° SSW 07:47:05 46° SE 07:50:17 10° ENE daylight
03 Nov - 09:22:09 10° WNW 09:23:57 14° NW 09:25:44 10° N daylight
03 Nov - 15:53:28 10° NNW 15:56:40 43° NE 15:59:51 10° ESE daylight
03 Nov - 17:32:01 10° WSW 17:33:00 11° SW 17:33:58 10° SW daylight
04 Nov - 06:55:18 10° S 06:57:55 22° SE 07:00:32 10° ENE daylight
04 Nov - 08:31:46 10° W 08:34:29 23° NW 08:37:13 10° NNE daylight
04 Nov - 15:04:33 10° NNW 15:07:16 23° NE 15:09:59 10° E daylight
04 Nov - 16:41:12 10° WNW 16:43:51 22° SW 16:46:30 10° S daylight
05 Nov - 06:07:55 10° SE 06:08:45 11° SE 06:09:35 10° ESE visible
05 Nov - 07:41:54 10° WSW 07:45:04 44° NW 07:48:15 10° NNE daylight
05 Nov - 14:15:58 10° N 14:17:45 14° NE 14:19:32 10° ENE daylight
05 Nov - 15:51:24 10° NW 15:54:37 47° SW 15:57:48 10° SSE daylight
06 Nov - 06:52:24 10° SW 06:55:42 85° SE 06:59:00 10° NE daylight
06 Nov - 15:01:57 10° NW 15:05:16 76° NE 15:08:34 10° SE daylight
07 Nov - 06:03:17 10° SSW 06:06:21 37° SE 06:09:26 10° ENE visible
07 Nov - 07:41:00 10° WNW 07:43:07 16° NW 07:45:14 10° N daylight
07 Nov - 14:12:43 10° NNW 14:15:49 36° NE 14:18:54 10° ESE daylight
07 Nov - 15:50:30 10° W 15:52:12 13° SW 15:53:55 10° SSW daylight
08 Nov - 05:14:42 10° S 05:17:01 18° SE 05:19:21 10° E visible
08 Nov - 06:50:38 10° W 06:53:31 27° NW 06:56:24 10° NNE daylight
08 Nov - 13:23:43 10° NNW 13:26:14 20° NE 13:28:45 10° E daylight
08 Nov - 15:00:01 10° WNW 15:02:53 27° SW 15:05:44 10° S daylight
